Cloud_Cover
5 5 5 5 5 5 5 5 5 9 16 0 5 31 7 100 80 100 100 100 73 91 66 87 89 82 96 100 50 45 53 94 100 100 100 100 99 100 100 99 34 5 82 95
99 16 27 50 5 5 18 5 8 5 5 5 49 59 43 91 83 100 100 100 100 92 69 93 67 72 100 100 100 100 77 100 100 100 100 100 100 100 100 98 98 38 98 97
100 86 26 60 5 5 6 10 4 6 5 84 11 5 53 80 100 100 100 100 100 100 100 90 78 23 100 100 100 99 100 97 100 100 98 96 98 100 100 92 81 5 53 94
28 7 34 60 5 5 5 4 3 4 14 85 5 2 72 100 100 100 99 9 62 60 92 96 89 12 100 100 100 100 100 100 100 96 100 100 100 100 100 100 100 95 96 91
7 45 4 86 10 4 0 2 0 18 84 5 4 4 96 85 100 74 5 5 9 94 97 100 55 66 100 100 100 100 100 100 100 100 99 97 100 100 100 100 100 100 100 97
90 100 54 15 0 3 1 4 5 20 4 5 14 51 7 7 13 5 5 5 70 92 100 87 61 78 100 100 100 100 100 100 100 100 100 100 100 100 100 100 100 100 100 98
96 100 28 3 1 5 5 6 5 5 5 13 5 69 94 95 5 5 5 11 16 78 100 100 54 98 100 100 94 100 100 100 100 99 100 100 100 100 99 100 100 100 100 100
100 100 48 0 0 18 53 6 25 5 54 98 100 100 100 43 5 5 5 71 100 100 100 100 72 100 100 100 100 100 100 100 100 100 100 100 100 96 100 100 100 100 100 100
72 18 19 5 5 88 97 55 100 77 100 100 100 94 5 5 5 5 45 89 100 98 88 100 100 42 100 100 100 100 100 100 100 100 100 100 100 99 100 100 100 100 100 100
42 93 100 100 100 100 100 100 100 100 100 100 100 20 5 5 5 5 60 92 95 89 80 100 99 100 90 100 100 100 100 100 100 100 100 100 100 98 100 100 100 100 100 100
64 98 100 100 100 100 100 100 100 100 100 100 69 9 5 5 5 7 73 80 99 76 76 68 100 95 100 100 99 100 100 100 100 100 100 100 100 99 100 100 100 100 100 100
99 100 63 100 100 100 100 100 100 100 80 62 26 6 5 5 5 45 81 78 100 99 97 100 100 65 100 100 100 100 100 100 100 100 100 100 100 91 100 100 100 100 100 100
100 100 100 100 100 100 100 100 98 32 37 8 58 7 5 5 6 86 90 82 92 96 100 100 100 100 100 100 100 100 100 100 100 100 100 100 100 100 100 100 100 100 100 100
100 100 100 100 100 100 53 28 62 67 54 45 35 5 5 5 31 76 99 100 100 100 100 86 100 97 100 100 100 100 100 100 100 100 100 100 100 100 100 100 100 100 100 100
100 100 100 100 67 16 92 47 15 77 90 55 94 5 5 5 81 100 93 100 100 100 99 90 98 100 100 100 100 100 100 100 100 100 100 100 100 100 100 100 100 100 100 100
43 83 97 96 97 98 100 100 100 48 5 5 5 5 5 5 10 94 91 100 100 100 100 100 100 100 100 100 100 100 100 100 100 100 100 100 100 100 100 100 100 100 100 100
13 22 71 12 5 5 61 82 100 94 7 5 5 5 5 5 14 100 100 100 100 97 77 100 100 100 100 100 100 100 100 100 100 100 100 100 100 100 100 100 100 100 100 100
100 100 100 100 100 75 33 100 100 72 12 5 5 5 5 5 31 100 100 100 100 100 100 100 100 100 100 100 100 100 100 100 100 100 100 100 100 100 100 100 100 100 100 100
100 100 100 100 100 100 100 100 100 100 89 5 42 21 5 59 69 100 100 100 100 100 98 99 100 100 100 100 100 100 100 100 100 100 100 100 100 100 100 100 100 100 100 100
100 100 100 100 76 94 100 100 100 100 82 27 51 84 5 5 50 100 100 100 100 100 100 100 100 100 100 100 100 100 100 100 100 100 100 100 100 100 100 100 100 100 100 100
100 100 96 89 32 5 5 5 5 5 5 5 52 96 98 6 60 99 100 100 100 100 100 100 100 100 100 100 100 100 100 100 100 100 100 100 100 100 100 100 100 100 100 100
3 5 5 4 5 5 5 5 7 9 5 17 50 100 100 99 75 97 100 100 100 100 100 100 100 100 100 100 100 100 100 100 100 100 100 100 100 100 100 100 100 100 100 100
5 5 5 5 83 75 40 5 17 5 5 56 100 100 100 100 100 83 100 100 100 100 100 100 100 100 100 100 100 100 100 100 100 100 100 100 100 100 100 100 100 100 100 100
5 5 50 34 90 93 100 100 96 100 99 99 100 100 100 100 100 100 100 100 100 100 100 100 100 100 100 100 100 100 100 100 100 100 100 100 100 100 100 100 100 100 100 100
18 82 93 96 97 100 100 100 100 100 100 100 100 100 100 100 100 100 100 100 100 100 100 100 100 100 100 100 100 100 100 100 100 100 100 100 100 100 100 100 100 100 100 100
100 99 94 100 100 100 100 100 100 100 100 100 100 100 100 100 100 100 100 100 100 100 100 100 100 100 100 100 88 98 100 100 100 100 100 100 100 100 100 100 100 100 100 100
100 100 100 100 100 100 100 100 100 100 100 100 100 100 100 100 100 100 100 100 100 100 100 100 100 100 100 99 100 79 100 100 99 97 100 100 100 100 100 100 100 100 100 100